Flag Weather past 2 weeks in Riffa, Bahrain

Now
72 °F

Clear.


Feels Like: 76 °F
Forecast: 68 / 74 °F
Wind: 7 mph from North

Location: Bahrain International Airport

Current Time: Nov 28, 2014 at 6:31:50 AM

Latest Report: Nov 28, 2014 at 6:00 AM


Visibility: 10 mi

Pressure: 30.01 "Hg

Humidity: 61%

Dew point: 57 °F

Location of RiffaLocation

Historic Weather in Riffa — Graph

°F

Riffa temperature yesterday

Maximum temperature yesterday: 77 °F (at 11:00 AM)
Minimum temperature yesterday: 72 °F (at 12:00 AM)
Average temperature yesterday: 74 °F

Past Weeks' High & Low Weather Summary

 TemperatureHumidityPressure
High86 °F (Nov 22, 12:00 PM)78% (Nov 16, 2:00 AM)30.15 "Hg (Nov 16, 2:00 AM)
Low68 °F (Nov 14, 5:00 AM)28% (Nov 14, 11:00 AM)29.77 "Hg (Nov 25, 3:00 PM)
Average76 °F58%30.01 "Hg
* Reported Nov 13 5:00 AM — Nov 28 5:00 AM, Riffa, Weather by CustomWeather, © 2014

Note: Actual official high and low records may vary slightly from our data, if they occured in-between our weather recording intervals... More about our weather records

Advertising

Riffa weather history for previous 24 hours

 ConditionsComfort  
Time TempWeatherWind HumidityBarometerVisibility
5:00 AM
Nov 28
72 °FClear.9 mph61%30.01 "Hg10 mi
4:00 AM72 °FClear.9 mph57%30.01 "Hg10 mi
3:00 AM72 °FClear.10 mph53%29.98 "Hg10 mi
2:00 AM72 °FClear.10 mph53%29.98 "Hg10 mi
1:00 AM72 °FClear.8 mph53%29.98 "Hg10 mi
12:00 AM73 °FClear.9 mph47%30.01 "Hg10 mi
11:00 PM
Nov 27
73 °FClear.8 mph47%30.01 "Hg10 mi
10:00 PM73 °FClear.10 mph50%30.01 "Hg10 mi
9:00 PM73 °FClear.10 mph50%30.01 "Hg10 mi
8:00 PM73 °FClear.9 mph47%30.01 "Hg10 mi
7:00 PM73 °FClear.8 mph44%30.01 "Hg10 mi
6:00 PM73 °FClear.10 mph44%30.01 "Hg10 mi
5:00 PM73 °FClear.10 mph44%30.01 "Hg10 mi
4:00 PM75 °FSunny.13 mph41%29.98 "Hg10 mi
3:00 PM75 °FPassing clouds.13 mph39%29.98 "HgN/A
2:00 PM77 °FSunny.13 mph34%29.98 "Hg10 mi
1:00 PM77 °FPassing clouds.13 mph34%30.01 "HgN/A
12:00 PM77 °FSunny.12 mph39%30.01 "Hg10 mi
11:00 AM77 °FPassing clouds.12 mph36%30.04 "HgN/A
10:00 AM75 °FPassing clouds.10 mph44%30.07 "HgN/A
9:00 AM75 °FPassing clouds.12 mph47%30.07 "HgN/A
8:00 AM73 °FPassing clouds.10 mph47%30.07 "HgN/A
7:00 AM72 °FScattered clouds.9 mph50%30.04 "HgN/A
6:00 AM72 °FPassing clouds.9 mph53%30.04 "HgN/A
Weather by CustomWeather, © 2014

See weather overviewHow to use our weather pages